GW3247 Weather Reports


time (UTC)temp
C
wind
direction
speed
KPH
gust
KPH
rain 1hr
cm
rain 24hr
cm
rain mn
cm
humidity
%
barometer
mb
20260831074557 16 133 4.8 9.7 0.00 0.69 0.00 86 1008.0
20260831073042 16 148 3.2 9.7 0.00 0.69 0.00 87 1008.2
20260831071549 16 201 3.2 6.4 0.00 0.69 0.00 87 1008.3
20260831070040 16 155 1.6 8.0 0.00 0.69 0.00 88 1008.1
20260831064539 16 200 4.8 9.7 0.00 0.89 0.00 89 1008.1
20260831063035 16 140 3.2 4.8 0.00 0.89 0.00 90 1008.0
20260831061533 15 151 3.2 8.0 0.00 0.89 0.00 91 1008.1
20260831060028 15 148 1.6 6.4 0.00 0.89 0.00 91 1008.0
20260831054526 15 169 3.2 11.3 0.00 0.91 0.00 91 1008.4
20260831053026 15 151 1.6 6.4 0.00 0.91 0.00 92 1008.3
20260831051525 15 202 1.6 6.4 0.00 0.91 0.00 92 1008.3
20260831050030 14 176 4.8 8.0 0.00 0.91 0.00 92 1008.6
20260831044524 14 210 1.6 9.7 0.00 0.91 0.00 92 1008.5
20260831043033 14 212 3.2 11.3 0.00 0.91 0.00 92 1008.3
20260831041522 14 221 3.2 9.7 0.00 0.91 0.00 92 1008.3
20260831040021 14 216 4.8 9.7 0.00 0.91 0.00 92 1008.3
20260831034521 15 162 3.2 9.7 0.00 0.91 0.00 91 1008.2
20260831033021 15 217 4.8 11.3 0.00 0.91 0.00 91 1008.3
20260831031518 15 230 4.8 11.3 0.00 0.91 0.00 91 1008.5
20260831030018 15 190 6.4 11.3 0.00 0.91 0.00 91 1008.5
20260831024523 15 212 4.8 11.3 0.00 0.94 0.00 91 1008.4
20260831023016 15 200 6.4 11.3 0.00 0.94 0.00 91 1008.3
20260831021516 15 245 6.4 12.9 0.00 0.94 0.00 91 1008.6
20260831020015 15 212 6.4 14.5 0.00 0.94 0.00 91 1008.6
20260831014512 15 207 8.0 14.5 0.00 0.94 0.00 91 1008.6
20260831013022 15 212 4.8 11.3 0.00 0.94 0.00 91 1008.6
20260831011517 14 212 6.4 11.3 0.00 0.94 0.00 91 1008.8
20260831010013 14 189 6.4 11.3 0.00 0.94 0.00 91 1008.6
20260831004511 14 205 4.8 12.9 0.00 0.94 0.00 91 1008.7
20260831003007 14 200 4.8 11.3 0.00 0.94 0.00 91 1008.8
20260831001514 14 210 4.8 11.3 0.00 0.94 0.00 90 1008.7
20260831000001 14 232 3.2 8.0 0.00 0.94 0.00 90 1008.6
20260830234607 14 214 3.2 8.0 0.00 0.94 0.00 90 1008.6
20260830234500 14 196 3.2 8.0 0.00 0.94 0.00 90 1008.6
20260830233059 15 213 3.2 8.0 0.00 0.94 0.00 89 1008.6
20260830231604 15 188 3.2 8.0 0.00 0.94 0.00 89 1008.6
20260830230054 15 231 1.6 6.4 0.00 0.94 0.00 89 1008.7
20260830224605 15 154 4.8 9.7 0.00 0.94 0.00 88 1008.5
20260830223051 15 237 4.8 11.3 0.00 0.94 0.00 87 1008.6
20260830221549 16 233 1.6 6.4 0.00 0.94 0.00 86 1008.5
20260830220048 16 269 4.8 16.1 0.00 0.94 0.00 86 1008.5
20260830214547 16 186 4.8 17.7 0.00 0.94 0.94 86 1008.5
20260830213044 16 306 9.7 20.9 0.00 0.94 0.94 86 1008.5
20260830211544 16 320 12.9 20.9 0.00 0.94 0.94 87 1008.2
20260830210049 16 238 4.8 22.5 0.00 0.94 0.94 88 1008.2
20260830204542 16 238 6.4 16.1 0.00 0.94 0.94 89 1008.2
20260830203041 16 239 6.4 16.1 0.00 0.94 0.94 89 1008.1
20260830201540 16 260 6.4 12.9 0.00 0.94 0.94 89 1007.9
20260830200050 16 229 6.4 14.5 0.00 0.94 0.94 89 1007.9
20260830194543 16 268 4.8 12.9 0.00 0.94 0.94 89 1007.7
20260830193034 16 233 4.8 14.5 0.00 0.94 0.94 89 1007.5
20260830191532 16 250 8.0 19.3 0.00 0.94 0.94 90 1007.3
20260830190035 16 260 8.0 16.1 0.00 0.94 0.94 90 1007.1
20260830184529 16 264 6.4 12.9 0.00 0.94 0.94 91 1006.9
20260830183029 16 196 4.8 12.9 0.00 0.94 0.94 91 1006.7
20260830181529 16 276 9.7 17.7 0.00 0.94 0.94 91 1006.5
20260830180028 16 281 12.9 35.4 0.00 0.94 0.94 90 1006.2
20260830174530 17 285 27.4 37.0 0.00 0.94 0.94 91 1005.9
20260830173028 16 313 25.7 37.0 0.00 0.94 0.94 92 1005.6
20260830171525 17 305 24.1 40.2 0.00 0.94 0.94 92 1005.3
20260830170023 17 291 27.4 37.0 0.00 0.94 0.94 92 1004.8
20260830164519 17 294 29.0 37.0 0.00 0.94 0.94 92 1004.4
20260830163022 17 285 19.3 29.0 0.00 0.94 0.94 92 1004.1
20260830161520 17 287 22.5 30.6 0.00 0.94 0.94 92 1003.9
20260830160019 18 281 17.7 30.6 0.03 0.94 0.94 92 1003.6
20260830154516 18 348 17.7 25.7 0.03 0.94 0.94 92 1003.2
20260830153029 18 297 16.1 27.4 0.03 0.94 0.94 92 1002.9
20260830151513 18 271 12.9 32.2 0.03 0.94 0.94 93 1002.8
20260830150013 18 276 12.9 22.5 0.00 0.91 0.91 93 1002.6
20260830144515 18 248 9.7 17.7 0.03 0.91 0.91 93 1002.5
20260830143011 18 238 3.2 11.3 0.03 0.91 0.91 94 1002.5
20260830141610 18 210 3.2 11.3 0.03 0.91 0.91 94 1002.4
20260830140009 18 207 6.4 14.5 0.03 0.91 0.91 94 1002.4
20260830134512 17 207 3.2 11.3 0.05 0.89 0.89 93 1002.3
20260830133009 17 205 4.8 14.5 0.30 0.89 0.89 93 1002.3
20260830131511 17 219 6.4 16.1 0.51 0.89 0.89 93 1002.1
20260830130007 17 221 12.9 29.0 0.51 0.89 0.89 93 1002.0
20260830124505 17 193 1.6 8.0 0.51 0.86 0.86 92 1001.9
20260830123005 18 210 8.0 16.1 0.23 0.56 0.56 91 1002.0
20260830121504 18 196 9.7 16.1 0.08 0.38 0.38 91 1001.9
20260830120003 18 232 8.0 27.4 0.13 0.38 0.38 90 1001.9
20260830114503 18 219 6.4 22.5 0.08 0.33 0.33 89 1001.9
20260830113101 18 184 8.0 16.1 0.08 0.33 0.33 89 1001.9
20260830111600 18 171 9.7 20.9 0.05 0.30 0.30 87 1002.1
20260830110100 18 206 11.3 20.9 0.00 0.25 0.25 85 1002.1
20260830104608 19 172 14.5 22.5 0.00 0.25 0.25 85 1002.2
20260830103058 18 184 9.7 20.9 0.00 0.25 0.25 87 1002.3
20260830101552 18 207 11.3 20.9 0.00 0.25 0.25 88 1002.4
20260830100049 18 158 6.4 12.9 0.00 0.25 0.25 90 1002.5
20260830094547 17 146 8.0 12.9 0.00 0.25 0.25 89 1002.6
20260830093046 17 134 6.4 14.5 0.00 0.25 0.25 90 1002.6
20260830091551 17 152 6.4 16.1 0.00 0.25 0.25 90 1002.7
20260830090042 17 148 8.0 14.5 0.00 0.25 0.25 91 1002.7
20260830084541 17 152 9.7 17.7 0.00 0.25 0.25 91 1002.7
20260830083050 17 153 8.0 16.1 0.00 0.25 0.25 91 1002.8
20260830081535 17 148 8.0 16.1 0.00 0.25 0.25 92 1002.9
20260830080034 16 165 6.4 19.3 0.00 0.25 0.25 92 1003.1